�������l�o���
Date,Time,MP-1(��Sv/h),MP-2(��Sv/h),MP-3(��Sv/h),MP-4(��Sv/h),MP-5(��Sv/h),MP-6(��Sv/h),MP-7(��Sv/h),MP-8(��Sv/h),����,����(m/s),���J
2017/03/20,00:00,1.032,1.697,1.149,2.004,1.390,0.547,1.005,0.934,��,3.7,��
2017/03/20,00:10,1.030,1.699,1.150,2.004,1.394,0.547,1.006,0.934,��,4.4,��
2017/03/20,00:20,1.030,1.698,1.149,2.004,1.390,0.547,1.005,0.931,��,4.2,��
2017/03/20,00:30,1.031,1.693,1.151,2.004,1.389,0.548,1.005,0.934,��,4.0,��
2017/03/20,00:40,1.033,1.694,1.150,2.001,1.392,0.547,1.005,0.933,���쐼,4.3,��
2017/03/20,00:50,1.031,1.697,1.149,2.002,1.391,0.547,1.005,0.932,��,5.3,��
2017/03/20,01:00,1.031,1.698,1.150,2.003,1.390,0.548,1.006,0.931,��,5.4,��
2017/03/20,01:10,1.032,1.698,1.148,2.005,1.390,0.548,1.005,0.932,��,5.1,��
2017/03/20,01:20,1.029,1.695,1.150,2.003,1.391,0.547,1.006,0.935,��,3.3,��
2017/03/20,01:30,1.032,1.694,1.149,2.004,1.389,0.547,1.006,0.933,��,3.0,��
2017/03/20,01:40,1.030,1.696,1.149,2.003,1.390,0.548,1.004,0.932,���k��,2.5,��
2017/03/20,01:50,1.029,1.694,1.151,2.006,1.387,0.546,1.006,0.935,�k��,3.2,��
2017/03/20,02:00,1.031,1.696,1.150,2.003,1.389,0.548,1.005,0.934,�k��,5.6,��
2017/03/20,02:10,1.031,1.695,1.152,2.004,1.388,0.549,1.008,0.932,�k��,4.1,��
2017/03/20,02:20,1.031,1.696,1.149,2.005,1.392,0.548,1.006,0.933,�k��,4.3,��
2017/03/20,02:30,1.032,1.695,1.151,2.004,1.389,0.548,1.005,0.933,�k��,3.7,��
2017/03/20,02:40,1.032,1.695,1.148,2.003,1.389,0.547,1.002,0.933,�k�k��,3.6,��
2017/03/20,02:50,1.034,1.694,1.149,2.004,1.388,0.548,1.004,0.933,�k��,4.1,��
2017/03/20,03:00,1.032,1.695,1.150,2.003,1.388,0.547,1.006,0.933,�k��,3.1,��
2017/03/20,03:10,1.033,1.693,1.147,2.003,1.388,0.547,1.005,0.932,�k�k��,3.8,��
2017/03/20,03:20,1.033,1.695,1.149,2.002,1.389,0.547,1.005,0.935,�k�k��,3.9,��
2017/03/20,03:30,1.031,1.694,1.149,2.001,1.385,0.547,1.005,0.933,�k�k��,4.1,��
2017/03/20,03:40,1.029,1.695,1.150,2.003,1.387,0.547,1.006,0.933,�k��,6.5,��
2017/03/20,03:50,1.032,1.692,1.151,2.006,1.391,0.549,1.005,0.933,�k��,7.2,��
2017/03/20,04:00,1.031,1.694,1.151,2.005,1.390,0.548,1.008,0.932,�k�k��,6.0,��
2017/03/20,04:10,1.030,1.695,1.149,2.001,1.390,0.548,1.007,0.935,�k�k��,5.3,��
2017/03/20,04:20,1.033,1.695,1.152,2.002,1.390,0.548,1.006,0.934,�k�k��,5.7,��
2017/03/20,04:30,1.031,1.695,1.151,2.003,1.392,0.547,1.008,0.935,�k,6.1,��
2017/03/20,04:40,1.032,1.692,1.152,2.005,1.391,0.548,1.008,0.934,�k,8.2,��
2017/03/20,04:50,1.033,1.700,1.150,2.007,1.390,0.547,1.007,0.934,�k�k��,7.9,��
2017/03/20,05:00,1.032,1.696,1.151,2.004,1.389,0.547,1.007,0.936,�k��,7.4,��
2017/03/20,05:10,1.032,1.695,1.152,2.006,1.388,0.547,1.007,0.933,�k��,9.7,��
2017/03/20,05:20,1.032,1.698,1.150,2.005,1.391,0.549,1.008,0.936,�k��,10.3,��
2017/03/20,05:30,1.033,1.696,1.150,2.005,1.390,0.548,1.009,0.935,�k��,8.2,��
2017/03/20,05:40,1.034,1.695,1.153,2.005,1.390,0.549,1.007,0.934,�k��,8.3,��
2017/03/20,05:50,1.031,1.697,1.153,2.011,1.392,0.549,1.007,0.935,�k�k��,6.1,��
2017/03/20,06:00,1.032,1.698,1.152,2.005,1.391,0.548,1.008,0.934,�k,4.9,��
2017/03/20,06:10,1.033,1.697,1.151,2.005,1.390,0.547,1.010,0.934,�k,5.4,��
2017/03/20,06:20,1.033,1.698,1.151,2.007,1.395,0.549,1.007,0.934,�k�k��,3.8,��
2017/03/20,06:30,1.032,1.696,1.152,2.007,1.387,0.551,1.007,0.934,�k��,3.9,��
2017/03/20,06:40,1.031,1.695,1.152,2.004,1.388,0.548,1.009,0.935,�k��,7.0,��
2017/03/20,06:50,1.033,1.697,1.152,2.007,1.389,0.547,1.008,0.936,�k��,5.6,��
2017/03/20,07:00,1.032,1.698,1.154,2.008,1.389,0.549,1.008,0.935,�k��,5.3,��
2017/03/20,07:10,1.033,1.700,1.153,2.008,1.390,0.549,1.007,0.935,�k��,4.5,��
2017/03/20,07:20,1.036,1.700,1.153,2.007,1.389,0.549,1.009,0.935,�k��,5.7,��
2017/03/20,07:30,1.034,1.699,1.153,2.009,1.392,0.549,1.010,0.935,�k��,4.4,��
2017/03/20,07:40,1.033,1.702,1.154,2.009,1.392,0.549,1.010,0.936,�k�k��,2.5,��
2017/03/20,07:50,1.034,1.701,1.152,2.010,1.391,0.548,1.011,0.938,�k��,5.5,��
2017/03/20,08:00,1.034,1.700,1.153,2.009,1.392,0.549,1.012,0.937,�k��,3.9,��
2017/03/20,08:10,1.034,1.701,1.153,2.009,1.391,0.547,1.007,0.936,�k�k��,2.9,��
2017/03/20,08:20,1.034,1.701,1.152,2.012,1.391,0.549,1.010,0.936,���k��,3.5,��
2017/03/20,08:30,1.034,1.700,1.153,2.011,1.392,0.548,1.010,0.935,���k��,3.6,��
2017/03/20,08:40,1.035,1.701,1.152,2.010,1.391,0.549,1.010,0.937,���k��,4.3,��
2017/03/20,08:50,1.035,1.700,1.154,2.010,1.393,0.550,1.008,0.935,��,4.5,��
2017/03/20,09:00,1.033,1.698,1.152,2.010,1.393,0.550,1.005,0.937,��,4.1,��
2017/03/20,09:10,1.036,1.699,1.157,2.012,1.395,0.549,1.007,0.936,��,2.7,��
2017/03/20,09:20,1.033,1.701,1.156,2.009,1.395,0.547,1.007,0.937,���k��,2.6,��
2017/03/20,09:30,1.034,1.701,1.155,2.009,1.392,0.549,1.006,0.936,���k��,2.4,��
2017/03/20,09:40,1.036,1.702,1.155,2.012,1.397,0.550,1.008,0.934,��,2.0,��
2017/03/20,09:50,1.034,1.702,1.156,2.010,1.395,0.549,1.006,0.935,���k��,1.9,��
2017/03/20,10:00,1.036,1.702,1.156,2.012,1.394,0.550,1.007,0.935,��,2.2,��
2017/03/20,10:10,1.036,1.705,1.155,2.011,1.395,0.551,1.008,0.933,���k��,2.9,��
2017/03/20,10:20,1.039,1.704,1.155,2.012,1.397,0.549,1.008,0.934,��,3.0,��
2017/03/20,10:30,1.037,1.701,1.154,2.014,1.398,0.549,1.008,0.933,���쓌,3.2,��
2017/03/20,10:40,1.040,1.705,1.156,2.013,1.397,0.549,1.007,0.933,��,3.8,��
2017/03/20,10:50,1.038,1.705,1.154,2.015,1.396,0.548,1.008,0.932,�쓌,3.3,��
2017/03/20,11:00,1.038,1.704,1.159,2.012,1.397,0.548,1.007,0.932,�쓌,4.1,��
2017/03/20,11:10,1.039,1.704,1.157,2.014,1.396,0.548,1.008,0.934,���쓌,4.0,��
2017/03/20,11:20,1.039,1.706,1.154,2.011,1.396,0.548,1.008,0.932,���쓌,3.6,��
2017/03/20,11:30,1.038,1.707,1.158,2.010,1.398,0.546,1.007,0.933,���쓌,4.4,��
2017/03/20,11:40,1.040,1.707,1.157,2.014,1.397,0.548,1.008,0.933,�쓌,4.5,��
2017/03/20,11:50,1.039,1.708,1.158,2.013,1.400,0.547,1.008,0.934,���쓌,4.5,��
2017/03/20,12:00,1.039,1.709,1.158,2.013,1.396,0.550,1.007,0.933,���쓌,4.0,��
2017/03/20,12:10,1.040,1.705,1.156,2.016,1.399,0.548,1.008,0.934,�쓌,4.6,��
2017/03/20,12:20,1.040,1.705,1.158,2.010,1.400,0.550,1.008,0.933,�쓌,4.8,��
2017/03/20,12:30,1.041,1.705,1.159,2.013,1.400,0.551,1.008,0.934,�쓌,4.6,��
2017/03/20,12:40,1.042,1.708,1.158,2.012,1.402,0.551,1.008,0.934,�쓌,4.0,��
2017/03/20,12:50,1.040,1.708,1.158,2.013,1.400,0.551,1.006,0.934,�쓌,4.1,��
2017/03/20,13:00,1.039,1.710,1.160,2.014,1.402,0.551,1.009,0.932,�쓌,4.8,��
2017/03/20,13:10,1.039,1.710,1.156,2.017,1.403,0.550,1.010,0.934,�쓌,3.8,��
2017/03/20,13:20,1.040,1.712,1.159,2.016,1.400,0.551,1.007,0.934,��쓌,3.8,��
2017/03/20,13:30,1.037,1.712,1.159,2.017,1.402,0.551,1.006,0.933,��쓌,3.7,��
2017/03/20,13:40,1.040,1.712,1.159,2.016,1.404,0.550,1.007,0.935,�쓌,3.7,��
2017/03/20,13:50,1.039,1.709,1.159,2.018,1.403,0.549,1.008,0.933,���쓌,3.0,��
2017/03/20,14:00,1.039,1.712,1.160,2.019,1.402,0.552,1.007,0.934,���쓌,3.9,��
2017/03/20,14:10,1.042,1.711,1.160,2.016,1.403,0.552,1.009,0.933,���쓌,3.7,��
2017/03/20,14:20,1.038,1.712,1.161,2.020,1.405,0.551,1.009,0.932,�쓌,4.0,��
2017/03/20,14:30,1.039,1.713,1.162,2.016,1.403,0.551,1.008,0.933,�쓌,2.6,��
2017/03/20,14:40,1.041,1.713,1.161,2.018,1.403,0.552,1.010,0.935,�쓌,2.8,��
2017/03/20,14:50,1.039,1.711,1.160,2.016,1.403,0.552,1.009,0.933,���쓌,3.4,��
2017/03/20,15:00,1.039,1.713,1.157,2.017,1.403,0.551,1.009,0.934,���쓌,2.6,��
2017/03/20,15:10,1.040,1.715,1.159,2.015,1.402,0.552,1.008,0.934,�쓌,2.9,��
2017/03/20,15:20,1.041,1.718,1.161,2.016,1.403,0.552,1.008,0.932,�쓌,3.7,��
2017/03/20,15:30,1.039,1.715,1.160,2.017,1.406,0.553,1.009,0.934,��쓌,3.4,��
2017/03/20,15:40,1.040,1.716,1.159,2.016,1.402,0.552,1.008,0.934,��쓌,4.2,��
2017/03/20,15:50,1.040,1.717,1.159,2.018,1.405,0.553,1.008,0.934,��쓌,3.1,��
2017/03/20,16:00,1.040,1.719,1.160,2.018,1.404,0.552,1.008,0.936,��쓌,3.4,��
2017/03/20,16:10,1.041,1.717,1.161,2.017,1.402,0.554,1.007,0.934,��쓌,3.5,��
2017/03/20,16:20,1.041,1.716,1.161,2.017,1.405,0.552,1.007,0.937,��쓌,3.9,��
2017/03/20,16:30,1.039,1.716,1.161,2.018,1.404,0.552,1.007,0.938,��,4.0,��
2017/03/20,16:40,1.042,1.718,1.160,2.019,1.405,0.552,1.006,0.938,��,3.7,��
2017/03/20,16:50,1.041,1.718,1.162,2.020,1.404,0.551,1.009,0.937,��,4.5,��
2017/03/20,17:00,1.043,1.717,1.161,2.014,1.403,0.552,1.008,0.938,��,4.0,��
2017/03/20,17:10,1.043,1.715,1.158,2.016,1.403,0.552,1.009,0.936,��쓌,3.6,��
2017/03/20,17:20,1.042,1.713,1.160,2.016,1.403,0.551,1.010,0.937,��,3.7,��
2017/03/20,17:30,1.043,1.715,1.159,2.019,1.406,0.554,1.009,0.935,��,4.2,��
2017/03/20,17:40,1.043,1.714,1.161,2.016,1.404,0.551,1.011,0.938,��,4.3,��
2017/03/20,17:50,1.042,1.716,1.159,2.016,1.405,0.552,1.010,0.935,��,4.8,��
2017/03/20,18:00,1.042,1.713,1.160,2.014,1.405,0.551,1.010,0.936,��,4.5,��
2017/03/20,18:10,1.039,1.713,1.160,2.015,1.405,0.552,1.009,0.937,��쐼,3.8,��
2017/03/20,18:20,1.042,1.711,1.160,2.016,1.405,0.551,1.012,0.936,��쐼,4.6,��
2017/03/20,18:30,1.041,1.715,1.158,2.015,1.406,0.553,1.010,0.936,��,5.2,��
2017/03/20,18:40,1.040,1.710,1.158,2.014,1.405,0.550,1.011,0.936,��,5.8,��
2017/03/20,18:50,1.041,1.711,1.159,2.017,1.406,0.550,1.010,0.937,��,5.4,��
2017/03/20,19:00,1.042,1.712,1.159,2.016,1.407,0.552,1.010,0.937,��쐼,4.7,��
2017/03/20,19:10,1.040,1.711,1.159,2.013,1.406,0.552,1.009,0.936,��쐼,5.2,��
2017/03/20,19:20,1.041,1.710,1.158,2.014,1.408,0.550,1.009,0.934,��쐼,6.1,��
2017/03/20,19:30,1.039,1.712,1.158,2.014,1.405,0.550,1.010,0.935,��쐼,6.1,��
2017/03/20,19:40,1.040,1.711,1.155,2.014,1.404,0.551,1.008,0.935,��쐼,6.9,��
2017/03/20,19:50,1.039,1.712,1.157,2.017,1.407,0.550,1.009,0.935,��쐼,6.5,��
2017/03/20,20:00,1.040,1.710,1.160,2.015,1.405,0.552,1.008,0.937,��쐼,6.6,��
2017/03/20,20:10,1.039,1.714,1.160,2.015,1.405,0.550,1.010,0.936,��,6.2,��
2017/03/20,20:20,1.040,1.709,1.158,2.012,1.405,0.551,1.008,0.936,��,7.1,��
2017/03/20,20:30,1.040,1.710,1.158,2.017,1.402,0.550,1.008,0.937,��,7.7,��
2017/03/20,20:40,1.041,1.710,1.158,2.012,1.406,0.551,1.007,0.935,��쐼,8.0,��
2017/03/20,20:50,1.041,1.710,1.160,2.015,1.401,0.549,1.006,0.936,��쐼,7.3,��
2017/03/20,21:00,1.042,1.710,1.158,2.014,1.406,0.549,1.009,0.934,��,7.5,��
2017/03/20,21:10,1.040,1.712,1.156,2.014,1.404,0.551,1.009,0.935,��,6.8,��
2017/03/20,21:20,1.040,1.709,1.156,2.014,1.403,0.550,1.009,0.937,��,7.6,��
2017/03/20,21:30,1.041,1.711,1.156,2.015,1.405,0.551,1.008,0.935,��,7.7,��
2017/03/20,21:40,1.039,1.707,1.156,2.015,1.404,0.550,1.010,0.935,��,7.3,��
2017/03/20,21:50,1.040,1.713,1.157,2.014,1.407,0.550,1.009,0.935,��쐼,5.8,��
2017/03/20,22:00,1.039,1.709,1.156,2.012,1.404,0.549,1.009,0.936,��쐼,4.9,��
2017/03/20,22:10,1.042,1.711,1.158,2.012,1.405,0.550,1.007,0.937,�쐼,5.7,��
2017/03/20,22:20,1.040,1.711,1.156,2.015,1.404,0.551,1.008,0.935,�쐼,6.5,��
2017/03/20,22:30,1.039,1.710,1.159,2.016,1.404,0.550,1.010,0.935,�쐼,5.1,��
2017/03/20,22:40,1.040,1.710,1.158,2.010,1.403,0.551,1.009,0.936,�쐼,4.7,��
2017/03/20,22:50,1.040,1.711,1.158,2.013,1.403,0.550,1.008,0.934,�쐼,5.2,��
2017/03/20,23:00,1.040,1.712,1.157,2.013,1.405,0.549,1.009,0.938,�쐼,4.6,��
2017/03/20,23:10,1.040,1.708,1.158,2.017,1.404,0.550,1.009,0.936,�쐼,4.1,��
2017/03/20,23:20,1.041,1.709,1.156,2.014,1.406,0.550,1.009,0.937,�쐼,3.4,��
2017/03/20,23:30,1.039,1.709,1.159,2.015,1.405,0.551,1.010,0.935,�쐼,1.5,��
2017/03/20,23:40,1.039,1.710,1.156,2.014,1.404,0.551,1.009,0.937,�쐼,1.7,��
2017/03/20,23:50,1.043,1.710,1.159,2.011,1.403,0.551,1.008,0.937,�쐼,2.3,��
